Location: Los Gatos B&B
(42.6926°N, 77.0646°W)
Time: 03:46:13
(UTC-04:00)

SL-16 R/B - Visible Passes

Search period start: 05 September 2015 00:00
Search period end: 15 September 2015 00:00
Orbit: 843 x 847 km, 71.0° (Epoch: 03 September)

Date Brightness Start Highest point End Pass type
(mag) Time Alt. Az. Time Alt. Az. Time Alt. Az.
05 Sep 4.3 02:26:32 20° ENE 02:26:32 20° ENE 02:29:11 10° NE visible
05 Sep 2.4 04:08:26 54° WNW 04:08:36 54° WNW 04:14:09 10° NNE visible
05 Sep 4.3 05:53:01 10° NW 05:54:13 10° NW 05:55:08 10° NNW visible
06 Sep 4.4 02:13:04 17° ENE 02:13:04 17° ENE 02:15:05 10° NE visible
06 Sep 2.5 03:54:58 54° NW 03:54:58 54° NW 04:00:08 10° NNE visible
06 Sep 4.3 05:38:38 10° NW 05:40:08 11° NW 05:41:21 10° NNW visible
07 Sep 4.6 01:59:34 15° ENE 01:59:34 15° ENE 02:00:59 10° NE visible
07 Sep 2.7 03:41:28 50° NNW 03:41:28 50° NNW 03:46:06 10° NNE visible
07 Sep 4.3 05:24:19 10° WNW 05:26:03 11° NW 05:27:32 10° NNW visible
08 Sep 4.8 01:46:03 13° ENE 01:46:03 13° ENE 01:46:52 10° NE visible
08 Sep 3.0 03:27:56 45° N 03:27:56 45° N 03:32:05 10° NNE visible
08 Sep 4.3 05:10:02 10° WNW 05:11:58 11° NW 05:13:40 10° NNW visible
09 Sep 4.9 01:32:29 11° ENE 01:32:29 11° ENE 01:32:46 10° NE visible
09 Sep 3.3 03:14:22 39° N 03:14:22 39° N 03:18:03 10° NNE visible
09 Sep 4.3 04:56:16 11° WNW 04:57:54 12° NW 04:59:47 10° NNW visible
10 Sep 3.6 03:00:47 34° N 03:00:47 34° N 03:04:02 10° NNE visible
10 Sep 4.3 04:42:40 12° NW 04:43:49 12° NW 04:45:52 10° NNW visible
11 Sep 3.8 02:47:11 30° N 02:47:11 30° N 02:50:00 10° NNE visible
11 Sep 4.3 04:29:04 12° NW 04:29:45 12° NW 04:31:58 10° NNW visible
12 Sep 4.1 02:33:33 26° NNE 02:33:33 26° NNE 02:35:58 10° NNE visible
12 Sep 4.3 04:15:26 13° NW 04:15:40 13° NW 04:18:03 10° NNW visible
13 Sep 4.3 02:19:54 23° NNE 02:19:54 23° NNE 02:21:57 10° NNE visible
13 Sep 4.4 04:01:47 13° NW 04:01:47 13° NW 04:04:06 10° NNW visible
14 Sep 4.4 02:06:14 20° NNE 02:06:14 20° NNE 02:07:55 10° NNE visible
14 Sep 4.4 03:48:07 13° NW 03:48:07 13° NW 03:50:10 10° NNW visible
